Hourly Weather Golcowa

Today, 15 May, Saturday

Time Temperature Precipitation Wind Pressure Humidity
00:00 +10°C° 0.1 mm 3 mps 729 mmHg 96%
01:00 +9°C° 0 mm 2 mps 730 mmHg 96%
02:00 +9°C° 0 mm 2 mps 730 mmHg 96%
03:00 +8°C° 0 mm 2 mps 730 mmHg 97%
04:00 +8°C° 0 mm 2 mps 730 mmHg 97%
05:00 +9°C° 0 mm 2 mps 731 mmHg 93%
06:00 +10°C° 0 mm 2 mps 731 mmHg 89%
07:00 +12°C° 0 mm 2 mps 731 mmHg 85%
08:00 +13°C° 0 mm 2 mps 731 mmHg 80%
09:00 +14°C° 0 mm 2 mps 732 mmHg 76%
10:00 +14°C° 0 mm 2 mps 732 mmHg 72%
11:00 +15°C° 0 mm 2 mps 731 mmHg 68%
12:00 +16°C° 0 mm 2 mps 731 mmHg 65%
13:00 +18°C° 0 mm 3 mps 731 mmHg 61%
14:00 +18°C° 0 mm 2 mps 731 mmHg 61%
15:00 +18°C° 0 mm 2 mps 731 mmHg 60%
16:00 +18°C° 0 mm 2 mps 730 mmHg 60%
17:00 +16°C° 0 mm 2 mps 730 mmHg 68%
18:00 +15°C° 0 mm 2 mps 730 mmHg 75%
19:00 +13°C° 0 mm 2 mps 730 mmHg 83%
20:00 +13°C° 0 mm 2 mps 730 mmHg 86%
21:00 +12°C° 0 mm 2 mps 730 mmHg 89%
22:00 +10°C° 0 mm 2 mps 730 mmHg 92%
23:00 +10°C° 0 mm 2 mps 730 mmHg 92%

Tomorrow, 16 May, Sunday

Time Temperature Precipitation Wind Pressure Humidity
00:00 +10°C° 0 mm 2 mps 729 mmHg 93%
01:00 +9°C° 0 mm 2 mps 729 mmHg 94%
02:00 +10°C° 0 mm 2 mps 729 mmHg 93%
03:00 +10°C° 0 mm 2 mps 729 mmHg 93%
04:00 +10°C° 0 mm 2 mps 729 mmHg 92%
05:00 +12°C° 0 mm 2 mps 729 mmHg 88%
06:00 +13°C° 0 mm 2 mps 729 mmHg 84%
07:00 +14°C° 0 mm 2 mps 729 mmHg 80%
08:00 +14°C° 0.1 mm 3 mps 729 mmHg 77%
09:00 +16°C° 0.1 mm 3 mps 729 mmHg 75%
10:00 +17°C° 0.1 mm 4 mps 729 mmHg 72%
11:00 +15°C° 0.2 mm 4 mps 729 mmHg 76%
12:00 +14°C° 0.2 mm 4 mps 729 mmHg 80%
13:00 +14°C° 0.2 mm 4 mps 728 mmHg 84%
14:00 +14°C° 0.1 mm 4 mps 728 mmHg 80%
15:00 +15°C° 0.1 mm 4 mps 728 mmHg 76%
16:00 +15°C° 0.1 mm 4 mps 728 mmHg 73%
17:00 +14°C° 0.2 mm 3 mps 728 mmHg 79%
18:00 +14°C° 0.2 mm 2 mps 728 mmHg 85%
19:00 +12°C° 0.2 mm 1 mps 728 mmHg 91%
20:00 +12°C° 0.1 mm 1 mps 728 mmHg 91%
21:00 +12°C° 0.1 mm 1 mps 728 mmHg 91%
22:00 +12°C° 0.1 mm 1 mps 728 mmHg 91%
23:00 +11°C° 0 mm 1 mps 728 mmHg 92%

Day after tomorrow, 17 May, Monday

Time Temperature Precipitation Wind Pressure Humidity
00:00 +11°C° 0 mm 1 mps 728 mmHg 93%
01:00 +10°C° 0 mm 1 mps 728 mmHg 94%
02:00 +10°C° 0 mm 1 mps 728 mmHg 94%
03:00 +9°C° 0 mm 1 mps 729 mmHg 95%
04:00 +9°C° 0 mm 1 mps 729 mmHg 95%
05:00 +11°C° 0 mm 1 mps 729 mmHg 92%
06:00 +12°C° 0 mm 1 mps 729 mmHg 89%
07:00 +14°C° 0 mm 1 mps 729 mmHg 85%
08:00 +15°C° 0.1 mm 2 mps 729 mmHg 79%
09:00 +16°C° 0.1 mm 2 mps 729 mmHg 72%
10:00 +17°C° 0.1 mm 3 mps 728 mmHg 66%
11:00 +18°C° 0.1 mm 3 mps 728 mmHg 65%
12:00 +18°C° 0.1 mm 4 mps 728 mmHg 64%
13:00 +17°C° 0.1 mm 5 mps 728 mmHg 63%
14:00 +15°C° 0.5 mm 4 mps 728 mmHg 72%
15:00 +14°C° 0.5 mm 3 mps 728 mmHg 82%
16:00 +12°C° 0.5 mm 3 mps 728 mmHg 92%
17:00 +12°C° 0.9 mm 2 mps 728 mmHg 93%
18:00 +12°C° 0.9 mm 2 mps 728 mmHg 95%
19:00 +10°C° 0.9 mm 2 mps 728 mmHg 97%
20:00 +10°C° 0.2 mm 2 mps 728 mmHg 97%
21:00 +10°C° 0.2 mm 1 mps 728 mmHg 97%
22:00 +10°C° 0.2 mm 1 mps 728 mmHg 96%
23:00 +8°C° 0 mm 2 mps 729 mmHg 95%

18 May, Tuesday

Time Temperature Precipitation Wind Pressure Humidity
00:00 +8°C° 0 mm 2 mps 729 mmHg 95%
01:00 +7°C° 0 mm 3 mps 729 mmHg 94%
02:00 +7°C° 0 mm 3 mps 729 mmHg 95%
03:00 +7°C° 0 mm 3 mps 729 mmHg 95%
04:00 +7°C° 0 mm 2 mps 729 mmHg 96%
05:00 +8°C° 0 mm 3 mps 729 mmHg 92%
06:00 +8°C° 0 mm 4 mps 730 mmHg 87%
07:00 +11°C° 0 mm 4 mps 730 mmHg 82%
08:00 +12°C° 0.1 mm 4 mps 730 mmHg 75%
09:00 +13°C° 0.1 mm 4 mps 730 mmHg 68%
10:00 +14°C° 0.1 mm 5 mps 730 mmHg 61%
11:00 +14°C° 0.2 mm 4 mps 730 mmHg 62%
12:00 +15°C° 0.2 mm 4 mps 730 mmHg 62%
13:00 +15°C° 0.2 mm 4 mps 730 mmHg 63%
14:00 +14°C° 0.5 mm 4 mps 731 mmHg 67%
15:00 +14°C° 0.5 mm 4 mps 731 mmHg 72%
16:00 +14°C° 0.5 mm 4 mps 731 mmHg 77%
17:00 +12°C° 0.2 mm 3 mps 731 mmHg 81%
18:00 +12°C° 0.2 mm 2 mps 731 mmHg 85%
19:00 +11°C° 0.2 mm 1 mps 731 mmHg 88%
20:00 +10°C° 0 mm 1 mps 732 mmHg 90%
21:00 +9°C° 0 mm 1 mps 732 mmHg 91%
22:00 +7°C° 0 mm 2 mps 732 mmHg 92%
23:00 +8°C° 0 mm 1 mps 732 mmHg 92%

19 May, Wednesday

Time Temperature Precipitation Wind Pressure Humidity
00:00 +8°C° 0 mm 1 mps 732 mmHg 93%
01:00 +7°C° 0 mm 1 mps 732 mmHg 93%
02:00 +7°C° 0 mm 1 mps 732 mmHg 94%
03:00 +7°C° 0 mm 1 mps 732 mmHg 94%
04:00 +7°C° 0 mm 1 mps 732 mmHg 95%
05:00 +7°C° 0 mm 2 mps 733 mmHg 93%
06:00 +8°C° 0 mm 2 mps 733 mmHg 91%
07:00 +10°C° 0 mm 3 mps 733 mmHg 89%
08:00 +11°C° 0.2 mm 3 mps 734 mmHg 85%
09:00 +12°C° 0.2 mm 3 mps 734 mmHg 80%
10:00 +13°C° 0.2 mm 3 mps 734 mmHg 75%
11:00 +13°C° 0.4 mm 3 mps 734 mmHg 74%
12:00 +13°C° 0.4 mm 3 mps 733 mmHg 73%
13:00 +14°C° 0.4 mm 4 mps 733 mmHg 72%
14:00 +13°C° 0.7 mm 4 mps 733 mmHg 77%
15:00 +13°C° 0.7 mm 4 mps 733 mmHg 82%
16:00 +12°C° 0.7 mm 4 mps 733 mmHg 87%
17:00 +11°C° 0.4 mm 4 mps 734 mmHg 88%
18:00 +10°C° 0.4 mm 3 mps 734 mmHg 90%
19:00 +10°C° 0.4 mm 3 mps 734 mmHg 92%
20:00 +9°C° 0 mm 3 mps 734 mmHg 94%
21:00 +8°C° 0 mm 2 mps 735 mmHg 95%
22:00 +8°C° 0 mm 2 mps 735 mmHg 97%
23:00 +8°C° 0.1 mm 2 mps 735 mmHg 97%

20 May, Thursday

Time Temperature Precipitation Wind Pressure Humidity
00:00 +8°C° 0.1 mm 2 mps 735 mmHg 96%
01:00 +8°C° 0.1 mm 2 mps 735 mmHg 96%
02:00 +8°C° 0.2 mm 2 mps 735 mmHg 96%
03:00 +8°C° 0.2 mm 2 mps 735 mmHg 96%
04:00 +7°C° 0.2 mm 2 mps 735 mmHg 96%
05:00 +8°C° 0.2 mm 2 mps 736 mmHg 94%
06:00 +8°C° 0.2 mm 3 mps 736 mmHg 92%
07:00 +9°C° 0.2 mm 3 mps 736 mmHg 90%
08:00 +10°C° 0.2 mm 3 mps 736 mmHg 84%
09:00 +11°C° 0.2 mm 3 mps 736 mmHg 79%
10:00 +13°C° 0.2 mm 3 mps 736 mmHg 73%
11:00 +13°C° 0.5 mm 3 mps 736 mmHg 72%
12:00 +13°C° 0.5 mm 3 mps 736 mmHg 71%
13:00 +13°C° 0.5 mm 3 mps 736 mmHg 70%
14:00 +13°C° 0.4 mm 3 mps 736 mmHg 71%
15:00 +13°C° 0.4 mm 3 mps 736 mmHg 72%
16:00 +14°C° 0.4 mm 2 mps 736 mmHg 73%
17:00 +13°C° 0.2 mm 2 mps 735 mmHg 78%
18:00 +12°C° 0.2 mm 2 mps 735 mmHg 83%
19:00 +10°C° 0.2 mm 1 mps 735 mmHg 88%
20:00 +10°C° 0 mm 1 mps 735 mmHg 89%
21:00 +9°C° 0 mm 1 mps 735 mmHg 90%
22:00 +7°C° 0 mm 2 mps 735 mmHg 91%
23:00 +7°C° 0 mm 2 mps 735 mmHg 91%
Show more